Ft. Stewart, GA

9:55 AM EDT on August 17, 2017 (GMT -0400)
Wright Army Air Field

Weather History for KLHW - August, 2013

Change the Weather History Date:

Thursday, August 29, 2013

  Actual Average Record
Temperature  
Mean Temperature 80 °F -  
Max Temperature 93 °F 89 °F 100 °F (1983)
Min Temperature 69 °F 70 °F 56 °F (1986)
Cooling Degree Days 16    
Growing Degree Days 30 (Base 50)    
Moisture  
Dew Point 75 °F    
Average Humidity 82    
Maximum Humidity 100    
Minimum Humidity 60    
Precipitation  
Precipitation 0.00 in - - ()
Sea Level Pressure  
Sea Level Pressure 29.95 in    
Wind  
Wind Speed 5 mph (WSW)    
Max Wind Speed 14 mph    
Max Gust Speed 17 mph    
Visibility 10 miles    
Events      
Averages and records for this station are not official NWS values.
T = Trace of Precipitation, MM = Missing Value Source: NWS Daily Summary

Daily Weather History Graph

Daily Weather History Graph

Search for Another Location

Airport or City:

Trip Planner

Search our weather history database for the weather conditions in past years. The results will help you decide how hot, cold, wet, or windy it might be!

Date:

Astronomy

Aug. 29, 2013 Rise Set
Actual Time 6:59 AM EDT 7:53 PM EDT
Civil Twilight 6:34 AM EDT 8:18 PM EDT
Nautical Twilight 6:05 AM EDT 8:48 PM EDT
Astronomical Twilight 5:35 AM EDT 9:18 PM EDT
Moon 1:00 AM EDT (8/29) 3:10 PM EDT (8/29)
Length of Visible Light 13h 43m
Length of Day
12h 53m
Last Quarter, 38% of the Moon is Illuminated
Aug 29
Last Quarter
Sep 5
New
Sep 12
First Quarter
Sep 19
Full
Sep 26
Last Quarter

Hourly Weather History & Observations

Time (EDT) Temp. Heat Index Dew Point Humidity Pressure Visibility Wind Dir Wind Speed Gust Speed Precip Events Conditions
12:58 AM 74.8 °F - 72.5 °F 92% 30.00 in 10.0 mi South 5.8 mph - N/A   Clear
1:58 AM 74.3 °F - 71.4 °F 91% 30.00 in 10.0 mi South 4.6 mph - N/A   Clear
2:58 AM 73.2 °F - 71.1 °F 93% 29.99 in 10.0 mi SW 2.3 mph - N/A   Clear
3:58 AM 72.7 °F - 71.1 °F 95% 29.98 in 10.0 mi South 3.5 mph - N/A   Clear
4:58 AM 71.2 °F - 70.9 °F 99% 29.98 in 10.0 mi Calm Calm - N/A   Clear
5:58 AM 71.1 °F - 71.1 °F 100% 29.97 in 10.0 mi Calm Calm - N/A   Clear
6:58 AM 69.4 °F - 69.4 °F 100% 29.98 in 10.0 mi Calm Calm - N/A   Clear
7:58 AM 72.0 °F - 72.0 °F 100% 29.99 in 10.0 mi Calm Calm - N/A   Clear
8:58 AM 76.5 °F - 73.0 °F 89% 29.99 in 10.0 mi WSW 8.1 mph - N/A   Partly Cloudy
9:58 AM 80.4 °F 85.5 °F 74.3 °F 82% 29.99 in 10.0 mi West 8.1 mph - N/A   Clear
10:58 AM 84.7 °F 94.0 °F 76.1 °F 75% 29.98 in 10.0 mi WSW 8.1 mph - N/A   Clear
11:58 AM 88.3 °F 101.7 °F 77.7 °F 71% 29.97 in 10.0 mi WSW 9.2 mph - N/A   Clear
12:58 PM 90.3 °F 104.2 °F 77.5 °F 66% 29.95 in 10.0 mi West 13.8 mph 17.3 mph N/A   Partly Cloudy
1:58 PM 90.1 °F 103.0 °F 76.8 °F 65% 29.94 in 10.0 mi WSW 12.7 mph - N/A   Mostly Cloudy
2:58 PM 92.7 °F 107.2 °F 77.4 °F 61% 29.93 in 10.0 mi WNW 9.2 mph - N/A   Scattered Clouds
3:58 PM 92.5 °F 106.7 °F 77.2 °F 61% 29.91 in 10.0 mi Variable 5.8 mph - N/A   Mostly Cloudy
4:58 PM 92.5 °F 106.0 °F 77.0 °F 60% 29.90 in 10.0 mi West 8.1 mph - N/A   Partly Cloudy
5:58 PM 91.4 °F 103.8 °F 76.5 °F 61% 29.90 in 10.0 mi West 5.8 mph - N/A   Clear
6:58 PM 90.5 °F 102.7 °F 76.5 °F 63% 29.89 in 10.0 mi West 5.8 mph - N/A   Clear
7:58 PM 85.5 °F 96.3 °F 77.0 °F 76% 29.90 in 10.0 mi WSW 2.3 mph - N/A   Clear
8:58 PM 81.5 °F 90.0 °F 78.4 °F 90% 29.91 in 10.0 mi Calm Calm - N/A   Clear
9:58 PM 79.9 °F - 78.4 °F 95% 29.93 in 10.0 mi Calm Calm - N/A   Mostly Cloudy
10:58 PM 82.2 °F 90.4 °F 77.0 °F 84% 29.92 in 10.0 mi WNW 4.6 mph - N/A   Mostly Cloudy
11:58 PM 79.7 °F - 76.8 °F 91% 29.92 in 10.0 mi Calm Calm - N/A   Clear